Weather History for Newark, NJ

Change the Weather History Date:

Tuesday, June 17, 2014

  Actual Average Record
Temperature  
Mean Temperature 81 °F 73 °F  
Max Temperature 91 °F 82 °F 98 °F (1952)
Min Temperature 70 °F 64 °F 52 °F (1950)
Degree Days  
Heating Degree Days 0 0  
Month to date heating degree days 0 15  
Since 1 June heating degree days 0 15  
Since 1 July heating degree days 5166 4870  
Cooling Degree Days 16 8  
Month to date cooling degree days 111 108  
Year to date cooling degree days 173 184  
Since 1 June cooling degree days 111 108  
Growing Degree Days 30 (Base 50)    
Moisture  
Dew Point 65 °F    
Average Humidity 60    
Maximum Humidity 78    
Minimum Humidity 41    
Precipitation  
Precipitation 0.00 in 0.13 in 1.37 in (2011)
Month to date precipitation 4.20 2.39  
Year to date precipitation 27.55 21.28  
Snow  
Snow 0.00 in 0.00 in T in (2011)
Month to date snowfall 0.0 0.0  
Since 1 July snowfall 61.1 28.5  
Snow Depth 0.00 in    
Sea Level Pressure  
Sea Level Pressure 30.00 in    
Wind  
Wind Speed 8 mph (SSW)    
Max Wind Speed 16 mph    
Max Gust Speed 16 mph    
Visibility 10 miles    
Events      
T = Trace of Precipitation, MM = Missing Value Source: NWS Daily Summary

Daily Weather History Graph

Daily Weather History Graph

Search for Another Location

Airport:

Trip Planner

Search our weather history database for the weather conditions in past years. The results will help you decide how hot, cold, wet, or windy it might be!

Date:

Astronomy

Jun. 17, 2014 Rise Set
Actual Time 5:25 AM EDT 8:30 PM EDT
Civil Twilight 4:51 AM EDT 9:03 PM EDT
Nautical Twilight 4:09 AM EDT 9:46 PM EDT
Astronomical Twilight 3:18 AM EDT 10:36 PM EDT
Moon 11:56 PM EDT (6/17) 10:37 AM EDT (6/17)
Length of Visible Light 16h 11m
Length of Day
15h 05m
Waning Gibbous, 73% of the Moon is Illuminated
Jun 17
Waning Gibbous
Jun 19
Last Quarter
Jun 27
New
Jul 5
First Quarter
Jul 12
Full

Hourly Weather History & Observations

Time (EDT) Temp. Heat Index Dew Point Humidity Pressure Visibility Wind Dir Wind Speed Gust Speed Precip Events Conditions
12:51 AM 73.0 °F - 61.0 °F 66% 30.06 in 10.0 mi South 6.9 mph - N/A   Mostly Cloudy
1:51 AM 71.1 °F - 61.0 °F 70% 30.04 in 10.0 mi South 5.8 mph - N/A   Overcast
2:51 AM 71.1 °F - 61.0 °F 70% 30.04 in 10.0 mi South 4.6 mph - N/A   Mostly Cloudy
3:51 AM 71.1 °F - 61.0 °F 70% 30.03 in 10.0 mi South 5.8 mph - N/A   Mostly Cloudy
4:51 AM 71.1 °F - 62.1 °F 73% 30.03 in 10.0 mi Calm Calm - N/A   Mostly Cloudy
5:51 AM 70.0 °F - 62.1 °F 76% 30.03 in 10.0 mi SSW 5.8 mph - N/A   Mostly Cloudy
6:51 AM 72.0 °F - 63.0 °F 73% 30.04 in 10.0 mi WSW 5.8 mph - N/A   Mostly Cloudy
7:51 AM 73.9 °F - 64.0 °F 71% 30.06 in 10.0 mi WSW 6.9 mph - N/A   Mostly Cloudy
8:51 AM 79.0 °F - 66.0 °F 64% 30.05 in 10.0 mi SW 5.8 mph - N/A   Mostly Cloudy
9:51 AM 82.0 °F 84.5 °F 66.9 °F 60% 30.06 in 10.0 mi WSW 3.5 mph - N/A   Mostly Cloudy
10:51 AM 84.9 °F 87.6 °F 66.9 °F 55% 30.05 in 10.0 mi Variable 3.5 mph - N/A   Mostly Cloudy
11:51 AM 86.0 °F 88.2 °F 66.0 °F 51% 30.04 in 10.0 mi Calm Calm - N/A   Mostly Cloudy
12:05 PM 87.8 °F 90.4 °F 66.2 °F 49% 30.03 in 10.0 mi ESE 3.5 mph - N/A   Mostly Cloudy
12:51 PM 88.2 °F 90.3 °F 65.8 °F 47% 30.02 in 10.0 mi SSE 4.6 mph - N/A   Mostly Cloudy
1:51 PM 87.1 °F 89.9 °F 66.9 °F 51% 30.00 in 10.0 mi South 6.9 mph - N/A   Mostly Cloudy
2:51 PM 89.1 °F 92.1 °F 66.9 °F 48% 29.99 in 10.0 mi West 11.5 mph - N/A   Scattered Clouds
3:51 PM 90.0 °F 91.7 °F 64.9 °F 43% 29.97 in 10.0 mi WSW 5.8 mph - N/A   Scattered Clouds
4:51 PM 88.0 °F 92.1 °F 69.1 °F 53% 29.95 in 10.0 mi South 9.2 mph - N/A   Scattered Clouds
5:51 PM 87.1 °F 92.8 °F 71.1 °F 59% 29.94 in 10.0 mi South 8.1 mph - N/A   Scattered Clouds
6:51 PM 90.0 °F 90.6 °F 63.0 °F 40% 29.93 in 10.0 mi WSW 10.4 mph - N/A   Scattered Clouds
7:51 PM 88.0 °F 88.7 °F 63.0 °F 43% 29.91 in 10.0 mi SW 12.7 mph - N/A   Scattered Clouds
8:51 PM 87.1 °F 87.8 °F 63.0 °F 44% 29.90 in 10.0 mi SW 10.4 mph - N/A   Scattered Clouds
9:51 PM 84.2 °F 85.6 °F 64.4 °F 51% 29.91 in 10.0 mi SW 11.5 mph - N/A   Scattered Clouds
10:51 PM 84.0 °F 86.3 °F 66.0 °F 55% 29.90 in 10.0 mi SW 13.8 mph - N/A   Scattered Clouds
11:51 PM 82.9 °F 85.4 °F 66.9 °F 58% 29.88 in 10.0 mi SW 16.1 mph - N/A   Partly Cloudy